Location: Dąbrowa Miętka
(51.3714°N, 18.6370°E)
Time: 11:20:21
(UTC+01:00)

ISS - Pass Details

Date: 25 January 2019
Orbit: 403 x 411 km, 51.6° (Epoch: 22 February)

Event Time Altitude Azimuth Distance (km) Brightness Sun altitude
Rises 18:27:24 0° 231° (SW) 2,328 1.0 -19.2°
Reaches altitude 10° 18:29:33 10° 223° (SW) 1,472 -0.3 -19.6°
Enters shadow 18:32:13 37° 175° (S) 661 -2.8 -20.0°
